Regional Weather Roundup
Issued by NWS

Home | Current Version | Previous Version | Text Only | Print | Product List | Glossary Off
Versions: 1 2 3 4 5 6 7 8 9 10 11 12 13 14 15 16 17 18 19 20 21 22 23 24 25 26 27 28 29 30 31 32 33 34 35 36 37 38 39 40 41 42 43 44 45 46 47 48 49 50

000
ASUS43 KOAX 280110
RWRNE

WEATHER ROUNDUP FOR NEBRASKA
NATIONAL WEATHER SERVICE OMAHA NE
800 PM CDT MON APR 27 2015

NOTES: SATELLITE DATA IS BEING USED TO AUGMENT CLOUD COVER ABOVE
       12000 FEET.
       "FAIR" INDICATES FEW OR NO CLOUDS BELOW 12,000 FEET WITH NO
       SIGNIFICANT WEATHER AND/OR OBSTRUCTIONS TO VISIBILITY.

  * THESE STATIONS DO NOT REPORT WEATHER SUCH AS RAIN...SNOW OR FOG.

NEZ001>004-019>022-054>056-280200-
NEBRASKA PANHANDLE

CITY           SKY/WX    TMP DP  RH WIND       PRES   REMARKS
SCOTTSBLUFF    CLOUDY    53  42  66 N14       30.27R
ALLIANCE       CLOUDY    52  43  71 N17       30.25R
CHADRON        MOCLDY    50  43  77 N9        30.29S
KIMBALL        CLOUDY    51  38  61 NE6       30.25R
SIDNEY         MOCLDY    55  38  52 N6        30.25R
$$

NEZ057>060-069>072-079>082-280200-
SOUTHWEST NEBRASKA

CITY           SKY/WX    TMP DP  RH WIND       PRES   REMARKS
NORTH PLATTE   CLOUDY    62  33  33 NE8       30.18R
IMPERIAL       MOCLDY    60  31  33 NE10      30.19S
LEXINGTON      CLOUDY    59  37  45 NE7       30.16R
MCCOOK         MOCLDY    62  35  36 NE9       30.16R
OGALLALA       MOCLDY    60  35  38 NE5       30.20R
$$

NEZ005>010-023>029-035>040-094-280200-
NORTH CENTRAL NEBRASKA

CITY           SKY/WX    TMP DP  RH WIND       PRES   REMARKS
VALENTINE      PTCLDY    59  40  49 N18G28    30.21R
AINSWORTH      PTCLDY    62  41  45 N21G26    30.20R
BROKEN BOW     MOCLDY    62  31  31 NE8       30.16R
O`NEILL        PTCLDY    61  34  35 NE7       30.17S
ORD            MOCLDY    60  30  32 N8        30.15R
THEDFORD       MOCLDY    64  34  32 N10       30.20R
$$

NEZ041-046>049-061>064-073>077-083>087-280200-
SOUTH CENTRAL NEBRASKA

CITY           SKY/WX    TMP DP  RH WIND       PRES   REMARKS
GRAND ISLAND   MOCLDY    60  31  33 NE7       30.15R
AURORA         MOCLDY    59  36  41 E6        30.14R
HASTINGS       CLOUDY    58  37  45 NE5       30.14R
HEBRON         CLOUDY    59  32  35 NE6       30.13R
HOLDREGE       MOCLDY    59  34  38 E7        30.15R
KEARNEY *      CLOUDY    61  36  39 E6        30.15R
YORK           PTCLDY    57  32  38 NE7       30.14R
$$

NEZ011>018-030>034-042>045-280200-
NORTHEAST NEBRASKA

CITY           SKY/WX    TMP DP  RH WIND       PRES   REMARKS
NORFOLK        PTCLDY    63  26  24 NE7       30.14R
ALBION         MOCLDY    62  30  29 NE6       30.15R
BLAIR          PTCLDY    63  28  27 NE8       30.11S
COLUMBUS *     PTCLDY    61  30  31 NE6       30.15R
FREMONT        PTCLDY    65  28  24 NE5       30.13R
TEKAMAH        PTCLDY    65  30  27 NE9       30.12R
WAYNE          PTCLDY    62  27  25 N6        30.14S
$$

NEZ050>053-065>068-078-088>093-280200-
SOUTHEAST NEBRASKA

CITY           SKY/WX    TMP DP  RH WIND       PRES   REMARKS
LINCOLN        PTCLDY    60  34  37 NE7       30.13R
OMAHA EPPLEY   MOCLDY    65  31  28 NE8       30.11R
BEATRICE       MOCLDY    60  34  38 NE5       30.11R
FALLS CITY     MOCLDY    62  33  33 NE6       30.08R
NEBRASKA CITY  PTCLDY    61  24  23 NE7       30.11R
PLATTSMOUTH    CLEAR     63  26  25 NE7       30.11R
$$

NEZ044-045-051>053-067-280200-
OMAHA AREA

CITY           SKY/WX    TMP DP  RH WIND       PRES   REMARKS
OMAHA EPPLEY   MOCLDY    65  31  28 NE8       30.11R
BLAIR          PTCLDY    63  28  27 NE8       30.11S
FREMONT        PTCLDY    65  28  24 NE5       30.13R
MILLARD        CLEAR     66  31  26 CALM      30.11R
OFFUTT AFB     CLEAR     63  32  31 NE7       30.10R
PLATTSMOUTH    CLEAR     63  26  25 NE7       30.11R
WAHOO          FAIR      62  29  29 NE8       30.12R
$$



USA.gov is the U.S. government's official web portal to all federal, state and local government web resources and services.